CZ-6A DEB, 54404

Orbit data source: Space-Track

CZ-6A DEB, 54404 is space debris in SSO originally from a launch on Fri, 11 Nov 2022 UTC launched from the Taiyaun Space Center, China (TSC). Debris objects in space refer to the collection of defunct objects orbiting the Earth. Examples of debris include non-operational satellites, rocket bodies, and fragments generated from explosions, collisions, or faulty payload assembly.

Loading next visibility...
Identifier
54404, 2022-151EC
Orbit
SSO
Country
Flag of CNCN / PRC
Related business
Manufacturer
SAST
Mission
Spacecraft
Bus & Motor
Unknown
Mass
Unknown
Launch date (UTC)
2022-11-11 (3 years ago)
Launch vehicle
Unknown
Launch site
Taiyaun Space Center, China (TSC)
Object type
Payload
Rocket body
Debris
Shape & HBR
Unknown shape, 0.4 m
Radar Cross Section
Medium (>0.1 m² and <1 m²)

Expand to show TLE details & history
Last TLE update: 10 hours ago

TLE from 10 hours ago
0 CZ-6A DEB
1 54404U 22151EC  26130.47001038  .00000544  00000-0  25458-3 0  9993
2 54404  98.7578 149.8505 0056310  94.5261 266.2352 14.23468727180927
Epoch: 2026-05-10T11:16Z
TLE epoch observation values (Epoch: 2026-05-10T11:16:48.896Z)
Latitude
-0.0001°
Longitude
112.37415°
Altitude
819.45 km
Speed
7.442 km/s
True Right ascension
09h 59m 24s
True Declination
0° 00' 00"
Sunlit
Object was in daylight at epoch
Visualization orbit readout
Latitude
Unknown
Longitude
Unknown
Altitude
Unknown
Speed
Unknown
Apparent Right ascension
Unknown
Apparent Declination
Unknown
Sunlit
N/A
Visualization observer readout
Local Sidereal Time
05:28:42
Azimuth
Unknown
Elevation
Unknown
Doppler factor
Unknown
Orbital elements
Apogee altitude
851.283 km
Perigee altitude
770.321 km
Semi-major axis
7,188.939 km
Eccentricity
0.00563
Inclination
98.7578°
RAAN
149.8505°
Arg. of periapsis
94.5261°
True anomaly
265.59164°
Mean anomaly
266.2352°
Eccentric anomaly
265.91339°
Mean motion
3.56079 °/min
Orbital period
101.1 mins
BSTAR
0.00025458
Loading maneuver chart data...
Computing Atmospheric mass density...
Loading historical data...
Loading historical data...
Loading historical data...
Loading historical data...
Loading historical data...
Loading historical data...
Loading historical data...

Documentation

Showing up to 5 results
|